Погода Верхний Уфалей

Погода Верхний Уфалей : погода сейчас, прогноз погоды и архив. Всё, что Вы хотите узнать о погоде Верхний Уфалей!

Поиск расширенной информации на нашем сайте:

Другие новости

Новости СМИ2

Главная страница сайта

Новости сайта

03.07.2017

Напоминаем, что на нашем специализированном сайте Метеоцентр.Азия вы можете получить высокодетализированные автоматические прогнозы погоды по пунктам России, СНГ и мира в авиационном формате (включающие направление и скорость ветра, видимость, явления погоды, количество и форму облачности, нижнюю и верхнюю границу облачности).

Рекомендуем: Набор столовое серебро цена.

Погода Верхний Уфалей - сегодня

Время (UTC), дата Ветер
(°,м/с) 
Видим.   Явления Облачность Т
(°С)
Тd
(°С)
f(%) Тe
(°С)
Pmin
(гПа)
dP
(гПа)
Po
(мм)
O2
(г/м3)
Тmin Tmax R s Состояние
почвы
18 22.07.17 тихо ()   4000 м  дымка{ливн. осадки}  6/6 600 м 
[Sc]
+13.9 +13.1 95 +20  1010.2  0.5  723  274           
21 22.07.17 тихо ()   2000 м  дымка  3/3 600 м 
[Sc]
+12.1 +11.5 96 +16  1010.2  -0.3  723  277           
00 23.07.17 200 (Ю) 0050 м  туман  ?/?  
+12.5 +11.9 96 +19  1010.1  723  276           
03 23.07.17 280 (З) 20000 м  {туман}  3/0 средняя 
[Ac trans]
+15 +12.6 86 +22  1009.9  0.2  723  274  +12        влажная 
06 23.07.17 280 (З) 20000 м  {туман}  8/8 600 м 
[Cu hum]
+18.9 +11.7 63 +24  1009.2  -0.1  723  270           
09 23.07.17 280 (З) 20000 м    8/8 600 м средняя 
[Cu med, cong|Ac trans]
+20.7 +11.3 55 +24  1008.9  723  269           
12 23.07.17 310 (СЗ) 20000 м    9/9 600 м 
[Cu med, cong]
+19.6 +11.7 60 +25  1008.9  -0.2  723  269           
15 23.07.17 360 (С) 20000 м    9/9 600 м 
[Sc]
+17.7 +13.6 77 +26  1009.7  0.5  723  271    +21.3       
18 23.07.17 тихо ()   20000 м    6/6 600 м 
[Sc]
+13.5 +12.3 92 +19  1010.1  -0.3  723  275           
21 23.07.17 060 (СВ) 4000 м  дымка  ясно 
+12.1 +11.3 95 +16  1009.9  -0.4  722  277           
00 24.07.17 060 (СВ) 4000 м  дымка  3/0 верхняя 
[Ci fib]
+10.6 +10 96 +14  1009.4  -0.7  722  278           
03 24.07.17 200 (Ю) 20000 м    6/0 верхняя 
[Ci fib]
+14 +12.2 89 +20  1008.9  0.1  722  274  +9.8        влажная 
06 24.07.17 200 (Ю) 20000 м    9/3 600 м средняя, верхняя 
[Cu med, cong|Ac trans|Ci fib]
+17.3 +13.9 80 +27  1007.7  -0.7  721  270           
09 24.07.17 260 (З) 20000 м    9/4 600 м средняя 
[Cu med, cong|Ac trans]
+21.8 +14 61 +30  1006.4  -0.5  721  266           
12 24.07.17 240 (ЮЗ) 20000 м    9/5 600 м средняя 
[Cu med, cong|Ac trans]
+21.4 +14.4 64 +30  1006.1  -0.4  721  266           
15 24.07.17 220 (ЮЗ) 20000 м    8/5 600 м средняя, верхняя 
[Sc|Ac trans|Ci sp]
+21.3 +15 67 +31  1005.3  -0.8  720  266    +22.5       
18 24.07.17 300 (СЗ) 20000 м    9/8 600 м средняя 
[Sc|Ac trans]
+18 +15.4 85 +30  1006.1  0.3  720  269           
21 24.07.17 280 (З) 4000 м  {ливн. осадки}  9/8 600 м средняя 
[Sc|Ac trans]
+15.3 +12.8 85 +23  1006.4  -0.1  720  272           
00 25.07.17 330 (СЗ) 4000 м  {ливн. осадки}  6/5 600 м средняя 
[Sc|Ac trans]
+12.7 +11.2 91 +18  1006.2  -0.6  720  275           
03 25.07.17 310 (СЗ) 20000 м    6/5 600 м средняя 
[Sc|Ac trans]
+13.2 +10.9 86 +17  1005.9  -0.3  720  274  +11.6    0.7    влажная 
06 25.07.17 190 (Ю) 20000 м    6/4 600 м средняя 
[Cu med, cong|Ac trans]
+16.3 +12.4 78 +23  1004.9  -0.4  719  271           
09 25.07.17 290 (З) 20000 м    9/6 600 м средняя 
[Cu med, cong|Ac trans]
+19.3 +10.7 57 +23  1003.5  -0.9  719  268           
12 25.07.17 240 (ЮЗ) 20000 м    9/8 600 м средняя, верхняя 
[Cu med, cong|Ac trans|Ci fib]
+19.1 +10.8 59 +23  1003.8  0.2  719  269           
15 25.07.17 220 (ЮЗ) 20000 м    6/3 600 м средняя 
[Sc|Ac trans]
+17 +12.1 73 +23  1004.2  0.1  719  270    +21.2       
18 25.07.17 220 (ЮЗ) 20000 м    8/4 600 м средняя 
[Sc|Ac trans]
+14.4 +12.2 87 +21  1004.1  -0.5  719  273           
Время (UTC), дата Ветер
(°,м/с) 
Видим.   Явления Облачность Т
(°С)
Тd
(°С)
f(%) Тe
(°С)
Pmin
(гПа)
dP
(гПа)
Po
(мм)
O2
(г/м3)
Тmin Tmax R s Состояние
почвы

Для получения пояснительной информации подведите курсор к названию столбца.

ПОГОДА Верхний Уфалей - архив

Всё, что Вы хотите узнать о погоде Верхний Уфалей - удобно и подробно!

Выберите нужную дату (начиная с 1 января 2015* года) и нажмите кнопку "Найти".
Будут отображены архивные сводки погоды по пункту Верхний Уфалей, начиная с указанной даты.


Отображать данные в формате CSV (для использования в таблицах Excel)


Внимание! Наш архив погоды предназначен исключительно для личного некоммерческого использования в познавательных целях. Если Вам необходимы официальные справки о состоянии погоды (для производственных, юридических, коммерческих и т.п. целей), обращайтесь в органы Росгидромета.

*Примечание: данная дата относится к архиву по метеостанциям СССР (Россия, СНГ, Балтия).
Архив по метеостанциям Зарубежной Европы и Азии (кроме Китая) хранится 10 дней, по другим регионам земного шара (Китай, Африка, Америка, Австралия, Океания) - 1 день.

Верхний Уфалей - район местоположения метеостанции


Название, широта, долгота, высота метеостанции:
Верхний Уфалей 56.1°ш. 60.3°д. 399 м над ур. моря [Российская Федерация]

Дополнительная информация

В oтличие oт бoльшинства пoгoдных сайтoв мы публикуем пoдрoбную метеoинфoрмацию в детальнoм прoфессиoнальнoм фoрмате.

Характеристики температуры и влажнoсти вoздуха измеряются на высoте 2 м в тени вдали oт зданий и деревьев.
Скoрoсть ветра измеряется на высoте 10 м (на урoвне рoста челoвека скoрoсть ветра ниже в 1.5-2 раза). Если метеoстанция нахoдится в гoрoде или в лесу, тo скoрoсть ветра занижена на 2-4 м/с пo сравнению с oткрытым местoм. Скoрoсть ветра над акватoриями крупных рек и oзёр, а также на вершинах хoлмoв на 2-5 м/с выше, чем в oбычных услoвиях.
Атмoсфернoе давление в разных тoчках местнoсти мoжет значительнo oтличаться oт давления на метеoстанции, в зависимoсти oт услoвий рельефа (при пoдъёме на 10 м давление пoнижается примернo на 1 мм рт.ст.).